[[{"header":{"parameterUnit":"m.s-1","parameterCategory":1,"la1":30.2991,"la2":30.254,"lo1":-89.0895,"lo2":-89.0444,"dy":0.0017,"dx":0.0017,"nx":28,"ny":28,"refTime":"2024-12-05T09:00:00:Z","depth":0,"parameterNumber":2,"parameterNumberName":"U-component_of_WINDS"},"data":[0,0,0,0,0,0,0,0,0,0,0,0,0,0,0,0,0,0,0,0,0,0,0,0,0,0,0,0,0,0,0,0,0,0,0,0,0,0,0,0,0,0,0,0,0,0,0,0,0,0,0,0,0,0,0,0,0,0,-2.3138,-2.3138,0,-2.3151,-2.3151,-2.3151,-2.3072,-2.3069,-2.3067,-2.3065,-2.308,-2.3083,-2.3085,0,0,0,0,0,0,0,0,0,0,0,0,0,-2.3043,-2.3046,-2.3138,-2.3138,-2.3138,-2.3151,-2.3151,-2.3151,-2.3072,-2.3069,-2.3066,-2.3064,-2.3079,-2.3082,-2.3085,0,0,0,0,0,0,0,0,0,0,0,0,0,-2.3073,-2.3046,-2.3138,-2.31,-2.3097,-2.3151,-2.3151,-2.3151,-2.3073,-2.3069,-2.3066,-2.3063,-2.3078,-2.3082,-2.3086,-2.3178,0,0,-2.3097,-2.3099,0,0,0,0,0,0,0,0,-2.3072,-2.3077,-2.3105,-2.3103,-2.3099,-2.3106,-2.3123,-2.316,-2.3073,-2.3082,-2.3065,-2.3061,-2.3092,-2.3094,-2.3104,-2.3178,-2.3179,-2.3098,-2.31,-2.3102,-2.3103,0,0,0,0,0,0,0,-2.307,-2.3076,-2.3143,-2.3106,-2.3102,-2.3082,-2.3083,-2.313,-2.3106,-2.3081,-2.3075,-2.3078,-2.3089,-2.3101,-2.3104,-2.3179,-2.3098,-2.3101,-2.3103,-2.3105,-2.3328,-2.3332,0,0,0,0,0,0,-2.3073,-2.3075,-2.3143,-2.3143,-2.3077,-2.3087,-2.3087,-2.3107,-2.3105,-2.3101,-2.308,-2.3074,-2.3096,-2.31,-2.3104,-2.3211,-2.3102,-2.3105,-2.3107,-2.3324,-2.3329,-2.3333,0,0,0,0,0,0,-2.3071,-2.308,-2.3142,-2.3107,-2.3114,-2.3092,-2.3115,-2.3109,-2.3121,-2.3105,-2.31,-2.3097,-2.3093,-2.3099,-2.316,-2.3211,-2.3107,-2.311,-2.332,-2.3326,-2.3331,-2.3426,0,0,0,0,0,0,-2.3069,-2.3079,-2.3114,-2.3109,-2.3116,-2.3198,-2.3118,-2.3112,-2.3127,-2.3119,-2.3119,-2.3115,-2.3091,-2.3154,-2.3163,-2.3214,-2.3113,-2.3315,-2.3323,-2.3329,-2.3419,-2.3434,-2.3448,0,0,0,0,0,-2.3066,-2.3141,-2.3116,-2.3125,-2.3159,-2.3201,-2.3205,-2.3175,-2.3132,-2.3167,-2.3156,-2.3115,-2.3203,-2.3161,-2.3171,-2.3223,-2.3312,-2.3321,-2.3329,-2.3412,-2.3431,-2.3448,0,0,0,0,0,0,-2.3154,-2.314,-2.3112,-2.3188,-2.3196,-2.3187,-2.323,-2.3196,-2.3217,-2.3208,-2.317,-2.3171,-2.3238,-2.3236,-2.319,-2.3311,-2.325,-2.3261,-2.331,-2.3329,-2.3343,-2.3343,-2.3116,0,0,0,0,0,-2.3182,-2.3217,-2.3203,-2.3271,-2.3276,-2.3253,-2.327,-2.3246,-2.3253,-2.3256,-2.325,-2.3258,-2.3287,-2.3308,-2.3334,-2.3417,-2.3416,-2.3458,-2.3473,-2.3485,-2.3495,-2.3538,-2.3557,-2.336,-2.336,-2.336,0,0,-2.3242,-2.3238,-2.3262,-2.3289,-2.3292,-2.3329,-2.3256,-2.3298,-2.3325,-2.3262,-2.3319,-2.3315,-2.3322,-2.3394,-2.3426,-2.3395,-2.3549,-2.3495,-2.3505,-2.3508,-2.3549,-2.3567,-2.3584,-2.3365,-2.3364,-2.3363,0,0,-2.3368,-2.3369,-2.3426,-2.343,-2.3435,-2.3419,-2.3432,-2.3428,-2.3422,-2.3479,-2.3432,-2.3463,-2.3514,-2.3521,-2.3531,-2.3658,-2.3622,-2.3668,-2.3745,-2.3788,-2.3804,-2.3817,-2.3863,-2.3879,-2.3677,-2.3678,-2.3678,0,-2.3441,-2.3495,-2.3459,-2.3504,-2.3517,-2.346,-2.3518,-2.3523,-2.3538,-2.3548,-2.3513,-2.3575,-2.3576,-2.3649,-2.368,-2.369,-2.3704,-2.3668,-2.3804,-2.3817,-2.383,-2.3873,-2.389,-2.3683,-2.3683,-2.3682,-2.3681,0,-2.3584,-2.3622,-2.3667,-2.3681,-2.3698,-2.375,-2.3722,-2.3744,-2.3718,-2.3705,-2.3763,-2.3761,-2.3786,-2.3801,-2.3776,-2.387,-2.3851,-2.381,-2.3748,-2.3855,-2.3894,-2.391,-2.3691,-2.3689,-2.3688,-2.3686,0,0,-2.3769,-2.3761,-2.3779,-2.3784,-2.3784,-2.3813,-2.3861,-2.3884,-2.3904,-2.3915,-2.3954,-2.3998,-2.396,-2.3972,-2.3947,-2.3985,-2.4085,-2.3939,-2.3939,-2.3967,-2.4189,-2.422,-2.4239,-2.406,-2.4063,-2.4066,-2.4188,0,-2.3893,-2.3974,-2.3943,-2.4027,-2.4061,-2.4006,-2.4048,-2.4053,-2.4042,-2.4069,-2.4056,-2.4088,-2.4036,-2.4042,-2.4077,-2.4066,-2.4129,-2.4056,-2.4097,-2.4099,-2.4098,-2.426,-2.4293,-2.4409,-2.4203,-2.4206,-2.4208,0,-2.4049,-2.4065,-2.4153,-2.4146,-2.4159,-2.4197,-2.4215,-2.4242,-2.4246,-2.4235,-2.4247,-2.4214,-2.426,-2.4197,-2.4261,-2.4212,-2.4226,-2.4223,-2.4227,-2.423,-2.4161,-2.4269,-2.4445,-2.4463,-2.4232,-2.423,-2.4228,0,-2.4176,-2.4219,-2.4277,-2.4283,-2.4277,-2.4305,-2.4304,-2.4304,-2.432,-2.4335,-2.4345,-2.4366,-2.4378,-2.4395,-2.4368,-2.4325,-2.4436,-2.437,-2.4428,-2.4429,-2.4455,-2.4454,-2.4638,-2.4463,-2.4463,-2.4463,-2.4462,0,-2.4318,-2.4374,-2.4334,-2.4369,-2.443,-2.4392,-2.4453,-2.4446,-2.4447,-2.448,-2.4434,-2.4466,-2.4428,-2.4456,-2.4435,-2.4491,-2.4497,-2.4489,-2.4483,-2.4494,-2.4495,-2.4504,-2.4496,-2.4467,-2.4466,-2.4465,-2.4465,0,-2.4471,-2.4446,-2.4505,-2.4494,-2.4492,-2.4537,-2.4527,-2.456,-2.4544,-2.4587,-2.4595,-2.4571,-2.4602,-2.4576,-2.4607,-2.4592,-2.4666,-2.4648,-2.4665,-2.466,-2.472,-2.4715,-2.4916,-2.4941,-2.475,-2.4752,-2.4754,0,-2.4564,-2.4606,-2.4598,-2.4616,-2.4618,-2.4648,-2.4663,-2.4628,-2.4646,-2.4652,-2.4684,-2.4711,-2.473,-2.4782,-2.4768,-2.4791,-2.4773,-2.4842,-2.4777,-2.4786,-2.4775,-2.4774,-2.4777,-2.4856,-2.4858,-2.486,-2.4862,0,-2.4733,-2.4717,-2.4741,-2.476,-2.4778,-2.4792,-2.4801,-2.4819,-2.4783,-2.4805,-2.4835,-2.4851,-2.4881,-2.4908,-2.4925,-2.4924,-2.4888,-2.4882,-2.4897,-2.4909,-2.4917,-2.4914,-2.4702,-2.4878,-2.4877,-2.4875,-2.4874,-2.4874,-2.4859,-2.4892,-2.4892,-2.4919,-2.4922,-2.4932,-2.4961,-2.4949,-2.4973,-2.4995,-2.4972,-2.5009,-2.5011,-2.5031,-2.5034,-2.5062,-2.5034,-2.5055,-2.506,-2.5066,-2.5075,-2.4911,-2.5065,-2.5065,-2.5064,-2.5064,-2.5063,0,-2.5025,-2.5021,-2.5046,-2.5061,-2.5082,-2.5043,-2.5052,-2.5072,-2.5105,-2.5109,-2.5129,-2.5164,-2.519,-2.5176,-2.5199,-2.5224,-2.5208,-2.5231,-2.523,-2.523,-2.5099,-2.5085,-2.5244,-2.5244,-2.5244,-2.5244,-2.5244,-2.5244,-2.5114,-2.5169,-2.5154,-2.5209,-2.5205,-2.5241,-2.5249,-2.5257,-2.526,-2.5301,-2.5322,-2.5312,-2.531,-2.5331,-2.5353,-2.5348,-2.5359,-2.5389,-2.5378,-2.5257,-2.5239,-2.5222,-2.5208,-2.5391,-2.5391,-2.5506,-2.5507,-2.5508]},{"header":{"parameterUnit":"m.s-1","parameterCategory":1,"la1":30.2991,"la2":30.254,"lo1":-89.0895,"lo2":-89.0444,"dy":0.0017,"dx":0.0017,"nx":28,"ny":28,"refTime":"2024-12-05T09:00:00:Z","depth":0,"parameterNumber":3,"parameterNumberName":"V-component_of_WINDS"},"data":[0,0,0,0,0,0,0,0,0,0,0,0,0,0,0,0,0,0,0,0,0,0,0,0,0,0,0,0,0,0,0,0,0,0,0,0,0,0,0,0,0,0,0,0,0,0,0,0,0,0,0,0,0,0,0,0,0,0,-6.7062,-6.7063,0,-6.7092,-6.7092,-6.7092,-6.6973,-6.6969,-6.6966,-6.6962,-6.699,-6.6994,-6.6998,0,0,0,0,0,0,0,0,0,0,0,0,0,-6.6899,-6.6903,-6.7062,-6.7063,-6.7063,-6.7092,-6.7092,-6.7093,-6.6973,-6.6969,-6.6965,-6.6961,-6.6989,-6.6994,-6.6998,0,0,0,0,0,0,0,0,0,0,0,0,0,-6.6954,-6.6904,-6.7062,-6.7007,-6.7002,-6.7092,-6.7092,-6.7093,-6.6974,-6.6969,-6.6964,-6.6959,-6.6987,-6.6993,-6.6999,-6.7142,0,0,-6.7018,-6.702,0,0,0,0,0,0,0,0,-6.6951,-6.696,-6.7015,-6.7011,-6.7006,-6.7023,-6.7045,-6.7109,-6.6976,-6.6985,-6.6962,-6.6956,-6.7005,-6.701,-6.7027,-6.7143,-6.7145,-6.7018,-6.7022,-6.7024,-6.7026,0,0,0,0,0,0,0,-6.6947,-6.6958,-6.7074,-6.7016,-6.701,-6.698,-6.6982,-6.7056,-6.7024,-6.6984,-6.6975,-6.698,-6.7002,-6.7021,-6.7026,-6.7145,-6.7018,-6.7023,-6.7027,-6.7029,-6.7379,-6.7385,0,0,0,0,0,0,-6.6951,-6.6955,-6.7073,-6.7075,-6.6965,-6.6987,-6.6989,-6.7023,-6.7023,-6.7018,-6.6985,-6.6975,-6.7013,-6.7019,-6.7027,-6.7194,-6.7024,-6.703,-6.7033,-6.7374,-6.738,-6.7387,0,0,0,0,0,0,-6.6948,-6.6963,-6.7072,-6.7013,-6.7024,-6.6995,-6.7034,-6.7026,-6.7045,-6.7024,-6.7017,-6.7011,-6.7009,-6.7018,-6.7114,-6.7193,-6.7033,-6.7038,-6.7367,-6.7376,-6.7384,-6.7529,0,0,0,0,0,0,-6.6944,-6.6962,-6.7017,-6.7015,-6.7028,-6.716,-6.7039,-6.7031,-6.7056,-6.7043,-6.7046,-6.7042,-6.7006,-6.7106,-6.712,-6.7198,-6.7043,-6.736,-6.7371,-6.7381,-6.7517,-6.7541,-6.7562,0,0,0,0,0,-6.6938,-6.7056,-6.702,-6.7035,-6.7096,-6.7165,-6.7172,-6.7129,-6.7063,-6.7118,-6.7104,-6.7042,-6.7182,-6.7117,-6.7132,-6.7213,-6.7355,-6.7368,-6.738,-6.7507,-6.7537,-6.7562,0,0,0,0,0,0,-6.7068,-6.7055,-6.7015,-6.7136,-6.7153,-6.7144,-6.7212,-6.7162,-6.7197,-6.7183,-6.7127,-6.7129,-6.7234,-6.7233,-6.716,-6.7351,-6.7257,-6.7273,-6.7348,-6.7376,-6.7398,-6.7396,-6.7048,0,0,0,0,0,-6.7111,-6.7169,-6.7154,-6.7262,-6.7272,-6.7241,-6.7269,-6.7235,-6.7249,-6.7255,-6.7248,-6.7264,-6.7311,-6.7343,-6.7386,-6.7516,-6.7515,-6.7579,-6.7602,-6.7621,-6.7635,-6.7703,-6.7732,-6.7429,-6.7428,-6.7428,0,0,-6.7199,-6.7199,-6.7239,-6.7288,-6.7297,-6.7357,-6.7248,-6.7316,-6.736,-6.7265,-6.7355,-6.7351,-6.7364,-6.7478,-6.7528,-6.748,-6.7719,-6.7637,-6.7652,-6.7657,-6.772,-6.7748,-6.7774,-6.7437,-6.7436,-6.7434,0,0,-6.7392,-6.7398,-6.7489,-6.75,-6.7514,-6.7493,-6.7515,-6.7514,-6.7508,-6.7598,-6.7528,-6.7578,-6.7661,-6.7674,-6.7691,-6.7888,-6.7832,-6.7903,-6.8021,-6.8088,-6.8112,-6.8133,-6.8203,-6.8229,-6.7918,-6.7918,-6.7918,0,-6.75,-6.7589,-6.7541,-6.7615,-6.7638,-6.7556,-6.7646,-6.7659,-6.7687,-6.7704,-6.765,-6.7752,-6.7756,-6.7871,-6.7919,-6.7936,-6.7958,-6.7902,-6.8113,-6.8133,-6.8152,-6.8218,-6.8244,-6.7927,-6.7926,-6.7925,-6.7924,0,-6.7721,-6.7784,-6.7855,-6.7884,-6.7915,-6.7997,-6.7961,-6.7998,-6.7961,-6.7944,-6.8036,-6.8037,-6.8078,-6.8103,-6.8067,-6.8213,-6.8183,-6.8122,-6.8027,-6.819,-6.8251,-6.8276,-6.7939,-6.7936,-6.7933,-6.7931,0,0,-6.7996,-6.7998,-6.8025,-6.8037,-6.8047,-6.8094,-6.8172,-6.8212,-6.8245,-6.8266,-6.8329,-6.8401,-6.8345,-6.8365,-6.8329,-6.8388,-6.8543,-6.8319,-6.8319,-6.8361,-6.8704,-6.875,-6.878,-6.8506,-6.8511,-6.8515,-6.8702,0,-6.8185,-6.8318,-6.8278,-6.8412,-6.8468,-6.8391,-6.8458,-6.8471,-6.8458,-6.8503,-6.8487,-6.8539,-6.8461,-6.8472,-6.8527,-6.8513,-6.8611,-6.8499,-6.8564,-6.8567,-6.8563,-6.8812,-6.886,-6.9038,-6.8726,-6.873,-6.8733,0,-6.8423,-6.8455,-6.8595,-6.8595,-6.8617,-6.8678,-6.8712,-6.8757,-6.8769,-6.8755,-6.8777,-6.8729,-6.8804,-6.8709,-6.881,-6.8735,-6.8758,-6.8756,-6.8761,-6.8766,-6.866,-6.8823,-6.9093,-6.912,-6.877,-6.8767,-6.8764,0,-6.8609,-6.8687,-6.8781,-6.8794,-6.8796,-6.8841,-6.8843,-6.8851,-6.8878,-6.8907,-6.8923,-6.8961,-6.8982,-6.9011,-6.8974,-6.8908,-6.9081,-6.8983,-6.9071,-6.9072,-6.9111,-6.9109,-6.939,-6.9127,-6.9127,-6.9126,-6.9126,0,-6.8824,-6.8913,-6.8865,-6.8922,-6.9019,-6.8971,-6.9067,-6.9061,-6.9068,-6.9122,-6.9057,-6.9109,-6.9057,-6.9104,-6.9076,-6.9164,-6.9174,-6.9164,-6.9156,-6.917,-6.9172,-6.9185,-6.9172,-6.9133,-6.9132,-6.913,-6.9129,0,-6.9049,-6.902,-6.9117,-6.9112,-6.9112,-6.9184,-6.9178,-6.923,-6.9212,-6.9282,-6.9295,-6.9267,-6.9319,-6.9285,-6.9337,-6.9317,-6.9433,-6.9407,-6.943,-6.9423,-6.9513,-6.9505,-6.9812,-6.9849,-6.9563,-6.9566,-6.9568,0,-6.9189,-6.9255,-6.9256,-6.9289,-6.9296,-6.9348,-6.9376,-6.933,-6.9361,-6.938,-6.943,-6.9477,-6.9512,-6.9598,-6.9581,-6.9621,-6.9595,-6.97,-6.9601,-6.9613,-6.9597,-6.9593,-6.9599,-6.972,-6.9724,-6.9726,-6.9729,0,-6.9439,-6.9421,-6.9463,-6.9501,-6.9536,-6.9563,-6.9584,-6.9614,-6.9568,-6.9606,-6.9659,-6.9686,-6.9739,-6.9786,-6.9819,-6.982,-6.9768,-6.976,-6.9783,-6.9798,-6.9808,-6.9804,-6.9484,-6.9753,-6.9751,-6.9749,-6.9748,-6.9747,-6.9625,-6.968,-6.969,-6.9739,-6.975,-6.9772,-6.9821,-6.9809,-6.9853,-6.9893,-6.9863,-6.9926,-6.9935,-6.9974,-6.9982,-7.003,-6.9987,-7.002,-7.0028,-7.0037,-7.005,-6.9801,-7.0036,-7.0035,-7.0034,-7.0033,-7.0033,0,-6.9871,-6.9873,-6.9919,-6.9952,-6.9991,-6.9937,-6.9958,-6.9994,-7.005,-7.0064,-7.01,-7.016,-7.0205,-7.0192,-7.0232,-7.0272,-7.0249,-7.0284,-7.0281,-7.0282,-7.0086,-7.0062,-7.0303,-7.0303,-7.0303,-7.0303,-7.0302,-7.0302,-7.0004,-7.0095,-7.0078,-7.0174,-7.0174,-7.0236,-7.0253,-7.0272,-7.0283,-7.0353,-7.0391,-7.0382,-7.0385,-7.0424,-7.0463,-7.0457,-7.0475,-7.052,-7.0506,-7.0323,-7.0296,-7.0271,-7.0248,-7.0524,-7.0524,-7.0698,-7.07,-7.0701]}]]